Regional Weather Roundup
Issued by NWS

Home | Current Version | Previous Version | Graphics & Text | Print | Product List | Glossary On
Versions: 1 2 3 4 5 6 7 8 9 10 11 12 13 14 15 16 17 18 19 20 21 22 23 24 25 26 27 28 29 30 31 32 33 34 35 36 37 38 39 40 41 42 43 44 45 46 47 48 49 50
000
ASUS43 KTOP 171059
RWRKS

WEATHER ROUNDUP FOR KANSAS
NATIONAL WEATHER SERVICE GOODLAND KS
500 AM CST SUN DEC 17 2017

NOTE:  "FAIR" INDICATES FEW OR NO CLOUDS BELOW 12,000 FEET WITH NO
SIGNIFICANT WEATHER AND/OR OBSTRUCTIONS TO VISIBILITY.

KSZ001>006-013>018-027>032-041>047-171200-
NORTHWEST KANSAS

CITY           SKY/WX    TMP DP  RH WIND       PRES   REMARKS
GOODLAND       CLOUDY    33  30  88 N10       29.94S WCI  25
HAYS           CLOUDY    32  25  75 NW9       29.91R
HILL CITY      CLOUDY    33  30  88 N16       29.93S WCI  23
RUSSELL        PTCLDY    35  28  75 S9        29.88S
$$

KSZ061>065-074>080-084>089-171200-
SOUTHWEST KANSAS

CITY           SKY/WX    TMP DP  RH WIND       PRES   REMARKS
DODGE CITY     CLOUDY    34  31  88 S8        29.89R
GARDEN CITY    CLOUDY    26  22  84 N10       29.91R WCI  16
LIBERAL        CLOUDY    24  21  88 E5        29.88R
$$

KSZ066>073-081>083-090>101-171200-
SOUTHEAST KANSAS

CITY           SKY/WX    TMP DP  RH WIND       PRES   REMARKS
CHANUTE        CLOUDY    43  42  97 S10       29.99S
COFFEYVILLE    CLOUDY    44  43  96 S8        29.99S
HUTCHINSON     CLOUDY    41  40  96 S5        29.93R
MEDICINE LODGE   N/A     40  38  93 S8        29.94R
NEWTON         CLOUDY    42  40  92 S13       29.94R
PARSONS        CLOUDY    43  43 100 S6        29.99F
WICHITA INTL   CLOUDY    44  42  93 S13       29.94R
WICHITA JABRA  CLOUDY    43  42  97 S12       29.94R
WICHITA MCCONL CLOUDY    43  41  93 SW13      29.94R
WINFIELD       CLOUDY    44  43  96 S10       29.98R
$$

KSZ007>012-019>026-033>040-048>060-102>105-171200-
NORTHEAST KANSAS

CITY           SKY/WX    TMP DP  RH WIND       PRES   REMARKS
CONCORDIA      CLOUDY    38  28  67 CALM      29.90F
EMPORIA        LGT RAIN  42  41  96 SE6       29.95S
LAWRENCE       LGT RAIN  43  41  93 SE3       29.99R FOG
MANHATTAN      LGT RAIN  43  41  93 CALM      29.93F
OLATHE IND     RAIN      42  42 100 S8        29.99R FOG
OLATHE EXE     RAIN      42  42 100 SW9       29.98R FOG
SALINA         CLOUDY    44  42  93 S6        29.92S
TOPEKA BILLARD LGT RAIN  44  44 100 S3        29.98R FOG
TOPEKA FORBES  RAIN      44  43  96 S3        29.97S FOG
$$




USA.gov is the U.S. government's official web portal to all federal, state and local government web resources and services.